Location: Biltmore Gardens
(41.6070°N, 83.4666°W)
Time: 15:15:24
(UTC+00:00)

Cosmos 2074 Rocket - Pass Details

Date: 14 July 2020
Orbit: 967 x 986 km, 82.9° (Epoch: 12 August)

Event Time Altitude Azimuth Distance (km) Brightness Sun altitude
Exits shadow 02:34:53 - 177° (S) 2,812 6.0 -13.7°
Reaches altitude 10° 02:35:09 10° 177° (S) 2,709 5.9 -13.7°
Maximum altitude 02:41:20 72° 94° (E) 1,017 4.0 -14.5°
Drops below altitude 10° 02:47:31 10° 11° (NNE) 2,718 6.8 -15.3°
Sets 02:50:02 0° 10° (N) 3,668 7.6 -15.6°
